Location: Holbach
(51.5399°N, 10.6036°E)
Time: 10:33:09
(UTC+00:00)

ATLAS 2AS CENTAUR R/B - Pass Details

Date: 18 September 2020
Orbit: 939 x 1273 km, 63.7° (Epoch: 27 October)

Event Time Altitude Azimuth Distance (km) Brightness Sun altitude
Rises 21:02:58 0° 218° (SW) 4,205 5.7 -30.5°
Enters shadow 21:04:49 - 218° (SW) 3,573 5.3 -30.6°
Exits shadow 21:11:57 59° 212° (SSW) 1,448 3.1 -31.3°
Maximum altitude 21:13:43 84° 132° (SE) 1,281 2.9 -31.5°
Drops below altitude 10° 21:21:35 10° 45° (NE) 3,211 5.3 -32.2°
Sets 21:24:19 0° 45° (NE) 4,147 5.9 -32.4°
